Location: Molino di Ancona
(43.6167°N, 13.3667°E)
Time: 16:37:30
(UTC+00:00)

Meteor 1-20 Rocket - Pass Details

Date: 15 December 2019
Orbit: 819 x 892 km, 81.2° (Epoch: 22 January)

Event Time Altitude Azimuth Distance (km) Brightness Sun altitude
Rises 03:54:38 0° 195° (SSW) 3,488 7.3 -27.6°
Enters shadow 03:56:00 - 197° (SSW) 2,966 6.9 -27.4°
Exits shadow 04:03:11 68° 302° (WNW) 957 4.2 -26.1°
Drops below altitude 10° 04:08:43 10° 6° (N) 2,556 6.7 -25.1°
Sets 04:11:11 0° 9° (N) 3,492 7.4 -24.6°
